SCP
-0 0 -0 -0 -0 -0 -0 -0 -0 -0 -0 -0 -0 -0 -0 -0 -0 -0 -0 -0 -0 -0 -0 -0 -0 -0 -0 -0 -0 -0 -0 -0 -0 -0 -0 -0 -0 -0 -0 -0 -0 -0 -0
0 0 -0 -0 -0 -0 -0 -0 -0 -0 -0 -0 -0 -0 -0 -0 -0 -0 -0 -0 -0 -0 -0 -0 -0 -0 -0 -0 -0 -0 -0 -0 -0 -0 -0 -0 -0 -0 -0 -0 -0 -0 -0
0 0 0 0 -0 -0 -0 -0 -0 -0 -0 -0 -0 -0 -0 -0 -0 -0 -0 -0 -0 -0 -0 -0 -0 -0 -0 -0 -0 -0 -0 -0 -0 -0 -0 0 0 -0 -0 -0 -0 -0 -0
0 0 0 0 -0 -0 -0 -0 -0 -0 -0 -0 -0 -0 -0 -0 -0 -0 -0 -0 -0 -0 -0 -0 -0 -0 -0 -0 -0 -0 -0 -0 -0 -0 0 0 0 -0 -0 -0 -0 -0 -0
0 0 0 -0 -0 -0 -0 -0 -0 -0 -0 -0 -0 -0 -0 -0 -0 -0 -0 -0 -0 -0 -0 -0 -0 -0 -0 -0 -0 -0 -0 -0 -0 0 0 0 0 -0 -0 -0 -0 -0 -0
-0 0 0 -0 -0 -0 -0 -0 -0 -0 -0 -0 -0 -0 -0 -0 -0 -0 -0 -0 -0 -0 -0 -0 -0 -0 -0 -0 -0 -0 -0 -0 -0 0 0 0 0 -0 -0 -0 -0 -0 -0
-0 0 -0 -0 -0 -0 -0 -0 -0 -0 -0 -0 -0 -0 -0 -0 -0 -0 -0 -0 -0 -0 -0 -0 -0 -0 -0 -0 -0 -0 -0 -0 0 0 0 0 -0 -0 -0 -0 -0 -0 -0
-0 -0 -0 -0 -0 -0 -0 -0 -0 -0 -0 -0 -0 -0 -0 -0 -0 -0 -0 -0 -0 -0 -0 -0 -0 -0 -0 -0 -0 -0 -0 -0 0 0 0 0 -0 -0 -0 -0 -0 -0 -0
-0 -0 -0 -0 -0 -0 -0 -0 -0 -0 -0 -0 -0 -0 -0 -0 -0 -0 -0 -0 -0 -0 -0 -0 -0 -0 -0 -0 -0 -0 -0 -0 0 0 0 0 -0 -0 -0 -0 0 -0 0
-0 -0 -0 -0 0 0 -0 -0 -0 -0 -0 -0 -0 -0 -0 -0 -0 -0 -0 -0 -0 -0 -0 -0 -0 -0 -0 -0 -0 -0 -0 -0 0 0 0 0 0 -0 0 0 0 0 0
0 -0 -0 -0 -0 0 0 -0 -0 -0 -0 -0 -0 -0 -0 0 0 0 0 -0 -0 -0 -0 -0 -0 -0 -0 -0 -0 -0 0 0 0 0 0 0 0 0 0 0 0 0 0
-0 -0 -0 -0 -0 -0 0 0 0 0 0 0 0 0 0 0 0 0 0 0 0 0 0 -0 -0 0 0 0 0 0 0 0 0 0 0 0 0 0 0 0 0 0 0
-0 -0 -0 -0 -0 -0 0 0 0 0 0 0 0 0 0 0 0 0 0 0 0 0 0 0 0 0 0 0 0 0 0 0 0 0 0 0 0 0 0 0 0 0 0
-0 -0 -0 -0 -0 -0 0 0 0 0 0 0 0 0 0 0 0 0 0 0 0 0 0 0 0 0 0 0 0 0 0 0 0 0 0 0 0 0 0 0 0 0 0
-0 -0 -0 -0 -0 -0 -0 0 0 0 0 0 0 0 0 0 0 0 0 0 0 0 0 0 0 0 0 0 0 0 0 0 0 0 0 0 0 0 0 0 0 0 0
-0 -0 -0 -0 -0 -0 -0 0 0 0 0 0 0 0 0 0 0 0 0 0 0 0 0 0 0 0 0 0 0 0 0 0 0 0 0 0 0 0 0 0 0 0 0
-0 0 -0 -0 -0 -0 -0 0 0 0 0 0 0 0 0 0 0 0 0 0 0 0 0 0 0 0 0 0 0 0 0 0 0 0 0 0 0 0 0 0 0 0 0
0 -0 0 0 0 -0 0 0 0 0 0 0 0 0 0 0 0 0 0 0 0 0 0 0 0 0 0 0 0 0 0 0 0 0 0 0 0 0 0 0 0 0 0
0 0 0 0 0 -0 0 0 0 0 0 0 0 0 0 0 0 0 0 0 0 0 0 0 0 0 0 0 0 0 0 0 0 0 0 0 0 0 0 0 0 0 0
0 0 0 0 0 0 0 0 0 0 0 0 0 0 0 0 0 0 0 0 0 0 0 0 0 0 0 0 0 0 0 0 0 0 0 0 0 0 0 0 0 0 0
0 0 0 0 0 0 0 0 0 0 0 0 0 0 0 0 0 0 0 0 0 0 0 0 0 0 0 0 0 0 0 0 0 0 0 0 0 0 0 0 0 0 0
0 0 0 0 0 0 0 0 0 0 0 0 0 0 0 0 0 0 0 0 0 0 0 0 0 0 0 0 0 0 0 0 0 0 0 0 0 0 0 0 0 0 0
0 0 0 0 0 0 0 0 0 0 0 0 0 0 0 0 0 0 0 0 0 0 0 0 0 0 0 0 0 0 0 0 0 0 0 0 0 0 0 0 0 0 0
0 0 0 0 0 0 0 0 0 0 0 0 0 0 0 0 0 0 0 0 0 0 0 0 0 0 0 0 0 0 0 0 0 0 0 0 0 0 0 0 0 0 0
0 0 0 0 0 0 0 0 0 0 0 0 0 0 0 0 0 0 0 0 0 0 0 0 0 0 0 0 0 0 0 0 0 0 0 0 0 0 0 0 0 0 0
0 0 0 0 0 0 0 0 0 0 0 0 0 0 0 0 0 0 0 0 0 0 0 0 0 0 0 0 0 0 0 0 0 0 0 0 0 0 0 0 0 0 0
Wind_Speed_500mb
43 35 28 25 22 20 18 17 19 18 19 19 19 19 21 19 16 19 22 21 16 25 29 28 28 25 25 27 26 27 27 30 34 39 42 41 40 39 39 38 40 40 42
48 40 32 24 23 20 18 17 18 19 19 19 20 21 20 21 20 23 25 22 26 29 31 28 24 23 22 25 26 25 24 23 22 23 31 37 37 42 40 38 36 34 30
46 43 32 29 25 22 20 18 18 18 20 21 20 21 20 22 21 20 24 24 27 30 31 27 28 25 24 26 23 23 22 20 17 16 19 30 31 31 27 26 27 26 32
45 41 35 31 27 24 22 20 19 18 19 19 20 21 21 24 24 15 18 20 21 26 30 27 27 27 26 27 27 27 25 22 20 21 22 30 32 29 29 29 29 33 33
44 39 35 31 28 25 22 20 18 17 18 19 19 20 22 27 24 14 11 16 17 22 23 22 22 22 22 25 25 25 24 24 21 23 26 26 35 34 36 34 36 37 40
43 40 37 33 29 26 21 19 17 17 17 17 17 18 21 26 22 16 8 13 15 18 18 18 21 20 20 23 25 27 26 26 27 30 32 39 39 38 35 39 36 34 33
45 42 40 35 31 27 22 18 17 16 16 16 16 16 18 20 19 13 5 7 10 14 14 16 17 17 18 19 22 25 26 30 34 41 39 35 35 28 27 28 29 32 33
41 43 42 38 33 28 24 20 17 15 14 14 14 14 16 17 16 11 6 3 6 11 12 13 14 13 14 18 21 23 27 31 36 32 28 21 23 20 19 26 24 24 26
37 43 44 41 37 31 28 23 19 16 14 13 12 12 13 11 10 7 5 3 13 15 14 13 13 13 14 15 16 18 22 25 30 22 25 21 14 15 10 16 16 18 21
34 42 45 44 41 37 33 28 24 20 17 14 13 11 9 7 6 6 4 4 12 15 15 14 12 11 12 13 12 9 12 16 17 19 19 26 22 14 9 11 15 22 26
38 41 46 47 45 41 37 33 29 25 22 19 18 15 12 9 7 7 7 8 12 13 15 13 11 9 8 8 8 5 9 13 16 19 17 15 13 8 2 16 20 22 19
48 47 46 44 47 45 43 39 36 32 29 25 22 19 16 12 8 9 10 12 13 14 15 15 12 9 6 4 4 8 11 16 18 17 14 16 13 7 9 18 19 21 26
49 48 49 41 44 49 49 46 42 39 35 32 28 26 20 17 10 6 13 15 16 15 12 12 10 8 5 3 3 8 14 16 18 17 14 13 8 12 8 15 23 25 26
53 51 47 43 42 43 51 50 47 45 42 39 35 32 26 24 15 8 12 14 14 11 10 10 9 7 5 3 4 5 14 16 19 16 16 16 12 18 12 21 24 23 22
59 55 56 51 50 45 43 52 53 51 48 43 40 38 34 32 24 19 14 17 13 11 12 9 6 7 6 4 4 7 13 18 18 22 15 17 14 14 13 19 21 23 22
63 63 61 64 60 53 47 48 52 54 51 48 47 44 40 36 35 28 24 21 20 15 12 12 13 12 12 11 10 9 13 18 23 24 23 22 19 18 7 2 20 20 22
62 64 68 68 67 64 58 52 53 50 50 52 51 50 46 43 43 37 36 27 31 20 22 25 25 22 22 19 19 17 19 22 25 26 27 26 25 26 24 18 18 16 17
62 66 65 68 71 70 66 59 58 58 52 52 51 53 51 49 48 47 41 35 37 33 32 37 38 34 30 29 26 26 26 27 29 32 34 32 31 30 32 32 18 16 14
62 65 68 70 72 72 69 65 62 63 66 56 55 55 57 54 53 53 52 48 45 50 44 38 46 44 39 38 35 35 33 36 36 38 43 40 39 40 40 42 33 26 18
55 63 65 70 72 74 73 70 69 70 70 70 64 61 61 61 58 59 59 57 56 58 58 53 50 51 49 45 44 43 43 45 44 46 48 50 50 49 49 48 45 35 30
56 64 70 71 72 75 82 85 83 80 78 76 74 66 64 63 66 67 65 64 67 66 62 66 61 57 56 55 51 51 52 53 55 53 57 59 58 61 59 55 53 45 39
57 60 63 73 73 74 77 80 87 82 80 77 76 73 68 66 68 72 74 73 69 71 71 72 71 67 69 65 65 58 43 59 66 65 66 68 66 65 69 65 62 55 49
49 53 57 60 70 74 77 84 89 91 90 84 82 80 72 65 69 69 74 75 74 76 77 75 77 77 79 76 78 60 30 41 54 71 77 75 74 74 72 72 68 64 57
28 37 47 49 57 70 76 82 81 83 88 86 86 82 70 70 72 69 71 76 80 79 82 81 79 81 84 89 88 89 76 43 40 33 56 76 79 83 82 81 79 74 67
15 15 25 36 44 58 70 74 76 78 82 83 79 79 80 71 73 77 74 80 79 81 82 82 83 86 94 88 90 98 91 96 74 70 59 60 70 80 86 84 85 84 78
8 14 17 24 33 41 53 62 66 68 72 71 74 75 71 68 67 72 75 78 78 81 87 89 86 89 93 96 83 104 103 108 102 99 84 88 82 71 81 85 86 93 92
Wind_Direction_500mb
170 171 162 154 150 138 122 99 90 88 94 103 108 107 102 95 90 74 57 56 85 95 100 100 96 90 94 99 101 104 106 110 103 97 92 87 87 90 94 93 92 91 91
161 169 165 159 151 138 122 107 95 92 97 103 109 111 109 105 95 84 66 63 87 98 99 97 100 99 93 98 99 107 113 114 119 117 110 102 102 96 98 95 96 94 94
167 166 168 163 154 145 134 116 107 105 106 105 110 116 114 113 103 87 79 69 90 99 101 95 96 101 100 99 100 102 106 110 119 124 125 109 103 101 104 103 100 101 94
169 169 168 165 160 150 140 130 121 118 110 107 114 118 121 117 108 93 80 69 92 98 100 101 100 97 89 87 85 93 100 104 105 109 114 113 100 105 108 104 93 90 87
176 175 172 172 167 156 148 137 128 123 116 111 109 120 122 123 116 121 92 67 99 105 109 110 105 98 86 82 86 88 94 97 100 105 105 106 106 100 94 95 98 98 93
179 180 179 180 176 168 160 145 139 134 126 115 110 108 117 125 128 135 116 76 97 115 119 117 114 103 93 85 84 89 86 91 93 89 88 81 85 91 100 103 103 107 104
182 184 184 185 183 178 173 160 153 144 133 124 117 113 121 126 136 151 129 60 89 124 128 128 126 119 102 91 95 95 97 96 96 93 96 98 102 103 107 110 110 112 107
188 187 190 191 191 188 186 180 170 161 151 139 131 127 135 142 152 169 172 100 133 148 147 143 142 136 104 100 107 106 106 106 106 109 116 109 119 119 123 115 115 114 117
194 198 195 196 195 195 196 194 189 181 173 163 152 145 152 153 156 164 156 113 155 155 151 152 148 134 116 104 103 111 117 119 128 131 130 128 132 142 137 121 120 115 106
201 204 201 201 201 201 201 201 200 195 192 187 181 171 166 166 171 181 183 130 162 154 151 161 157 138 119 107 103 123 145 149 153 147 145 133 141 128 131 130 121 107 118
205 206 207 208 208 209 207 205 205 205 204 202 196 188 184 183 189 206 201 177 172 163 159 164 158 141 117 109 107 138 176 180 177 170 171 177 209 231 247 123 132 129 120
207 204 208 213 215 213 213 212 212 212 212 212 208 202 193 199 203 210 205 192 184 173 167 165 159 152 137 118 115 143 165 180 190 184 199 214 198 164 140 155 147 127 118
211 212 210 214 219 219 218 217 217 217 217 215 214 212 214 204 203 224 204 195 187 180 170 168 167 171 170 148 137 159 178 185 184 175 200 198 276 313 0 146 131 118 109
218 219 219 221 220 225 225 224 225 224 222 222 219 218 220 207 208 227 205 194 187 183 184 181 180 183 180 161 155 185 182 188 183 199 216 226 258 305 344 130 124 122 121
224 225 227 228 226 229 231 227 230 230 229 228 225 225 222 218 217 222 211 201 207 201 195 211 211 216 219 214 209 197 199 198 205 206 235 216 254 291 318 135 135 126 124
229 230 230 230 232 234 240 236 233 233 233 232 230 230 227 225 220 225 219 222 212 217 230 235 242 244 242 237 238 232 215 207 201 216 234 248 262 277 271 191 142 140 132
235 233 232 232 233 235 241 244 238 238 238 234 232 231 231 230 225 225 225 227 221 238 235 243 241 245 237 244 238 233 219 216 212 224 233 252 258 263 260 275 166 156 152
241 238 236 234 234 235 239 242 240 239 242 237 233 233 235 233 232 229 233 240 235 239 249 252 245 240 244 247 240 229 224 222 229 227 235 241 247 251 252 266 213 195 181
246 244 240 237 237 236 238 241 242 242 243 243 241 236 238 236 234 235 238 237 244 240 237 255 246 246 244 242 236 234 228 225 236 238 239 238 243 246 243 264 258 266 225
249 247 244 241 240 239 239 240 240 241 244 244 247 243 240 240 238 238 238 243 244 241 241 241 243 244 242 241 237 234 236 235 233 237 245 244 246 246 249 256 253 261 258
251 250 245 241 238 238 236 235 236 237 239 242 246 247 246 246 245 242 242 243 246 245 249 245 244 240 239 237 236 234 232 234 241 238 239 245 243 247 249 249 250 256 253
249 251 250 246 240 238 240 242 240 243 245 246 248 252 249 249 252 247 246 245 248 249 246 249 247 246 240 241 236 235 234 241 242 243 242 240 241 243 247 249 249 249 251
247 249 250 249 245 242 240 241 242 241 243 243 243 247 252 250 256 251 252 251 249 251 251 253 252 250 249 244 241 231 215 234 245 245 245 244 244 243 245 245 245 246 245
252 250 245 247 244 243 241 241 243 247 246 249 250 249 250 256 256 259 254 253 256 253 252 252 253 254 251 251 244 249 238 249 235 242 250 248 244 246 244 246 246 245 243
249 255 245 245 244 242 241 243 245 246 249 253 255 253 253 258 258 258 257 259 259 260 259 257 255 251 254 251 256 254 249 245 244 246 255 253 249 250 247 249 250 245 241
264 266 256 242 240 239 238 242 246 250 254 257 257 259 262 261 261 264 261 261 265 265 267 264 265 257 256 251 267 254 255 252 248 250 259 256 257 259 253 248 251 248 245
Wind_Speed_850mb
43 35 28 25 22 20 18 17 19 18 19 19 19 19 21 19 16 19 22 21 16 25 29 28 28 25 25 27 26 27 27 30 34 39 42 41 40 39 39 38 40 40 42
48 40 32 24 23 20 18 17 18 19 19 19 20 21 20 21 20 23 25 22 26 29 31 28 24 23 22 25 26 25 24 23 22 23 31 37 37 42 40 38 36 34 30
46 43 32 29 25 22 20 18 18 18 20 21 20 21 20 22 21 20 24 24 27 30 31 27 28 25 24 26 23 23 22 20 17 16 19 30 31 31 27 26 27 26 32
45 41 35 31 27 24 22 20 19 18 19 19 20 21 21 24 24 15 18 20 21 26 30 27 27 27 26 27 27 27 25 22 20 21 22 30 32 29 29 29 29 33 33
44 39 35 31 28 25 22 20 18 17 18 19 19 20 22 27 24 14 11 16 17 22 23 22 22 22 22 25 25 25 24 24 21 23 26 26 35 34 36 34 36 37 40
43 40 37 33 29 26 21 19 17 17 17 17 17 18 21 26 22 16 8 13 15 18 18 18 21 20 20 23 25 27 26 26 27 30 32 39 39 38 35 39 36 34 33
45 42 40 35 31 27 22 18 17 16 16 16 16 16 18 20 19 13 5 7 10 14 14 16 17 17 18 19 22 25 26 30 34 41 39 35 35 28 27 28 29 32 33
41 43 42 38 33 28 24 20 17 15 14 14 14 14 16 17 16 11 6 3 6 11 12 13 14 13 14 18 21 23 27 31 36 32 28 21 23 20 19 26 24 24 26
37 43 44 41 37 31 28 23 19 16 14 13 12 12 13 11 10 7 5 3 13 15 14 13 13 13 14 15 16 18 22 25 30 22 25 21 14 15 10 16 16 18 21
34 42 45 44 41 37 33 28 24 20 17 14 13 11 9 7 6 6 4 4 12 15 15 14 12 11 12 13 12 9 12 16 17 19 19 26 22 14 9 11 15 22 26
38 41 46 47 45 41 37 33 29 25 22 19 18 15 12 9 7 7 7 8 12 13 15 13 11 9 8 8 8 5 9 13 16 19 17 15 13 8 2 16 20 22 19
48 47 46 44 47 45 43 39 36 32 29 25 22 19 16 12 8 9 10 12 13 14 15 15 12 9 6 4 4 8 11 16 18 17 14 16 13 7 9 18 19 21 26
49 48 49 41 44 49 49 46 42 39 35 32 28 26 20 17 10 6 13 15 16 15 12 12 10 8 5 3 3 8 14 16 18 17 14 13 8 12 8 15 23 25 26
53 51 47 43 42 43 51 50 47 45 42 39 35 32 26 24 15 8 12 14 14 11 10 10 9 7 5 3 4 5 14 16 19 16 16 16 12 18 12 21 24 23 22
59 55 56 51 50 45 43 52 53 51 48 43 40 38 34 32 24 19 14 17 13 11 12 9 6 7 6 4 4 7 13 18 18 22 15 17 14 14 13 19 21 23 22
63 63 61 64 60 53 47 48 52 54 51 48 47 44 40 36 35 28 24 21 20 15 12 12 13 12 12 11 10 9 13 18 23 24 23 22 19 18 7 2 20 20 22
62 64 68 68 67 64 58 52 53 50 50 52 51 50 46 43 43 37 36 27 31 20 22 25 25 22 22 19 19 17 19 22 25 26 27 26 25 26 24 18 18 16 17
62 66 65 68 71 70 66 59 58 58 52 52 51 53 51 49 48 47 41 35 37 33 32 37 38 34 30 29 26 26 26 27 29 32 34 32 31 30 32 32 18 16 14
62 65 68 70 72 72 69 65 62 63 66 56 55 55 57 54 53 53 52 48 45 50 44 38 46 44 39 38 35 35 33 36 36 38 43 40 39 40 40 42 33 26 18
55 63 65 70 72 74 73 70 69 70 70 70 64 61 61 61 58 59 59 57 56 58 58 53 50 51 49 45 44 43 43 45 44 46 48 50 50 49 49 48 45 35 30
56 64 70 71 72 75 82 85 83 80 78 76 74 66 64 63 66 67 65 64 67 66 62 66 61 57 56 55 51 51 52 53 55 53 57 59 58 61 59 55 53 45 39
57 60 63 73 73 74 77 80 87 82 80 77 76 73 68 66 68 72 74 73 69 71 71 72 71 67 69 65 65 58 43 59 66 65 66 68 66 65 69 65 62 55 49
49 53 57 60 70 74 77 84 89 91 90 84 82 80 72 65 69 69 74 75 74 76 77 75 77 77 79 76 78 60 30 41 54 71 77 75 74 74 72 72 68 64 57
28 37 47 49 57 70 76 82 81 83 88 86 86 82 70 70 72 69 71 76 80 79 82 81 79 81 84 89 88 89 76 43 40 33 56 76 79 83 82 81 79 74 67
15 15 25 36 44 58 70 74 76 78 82 83 79 79 80 71 73 77 74 80 79 81 82 82 83 86 94 88 90 98 91 96 74 70 59 60 70 80 86 84 85 84 78
8 14 17 24 33 41 53 62 66 68 72 71 74 75 71 68 67 72 75 78 78 81 87 89 86 89 93 96 83 104 103 108 102 99 84 88 82 71 81 85 86 93 92
Wind_Direction_850mb
170 171 162 154 150 138 122 99 90 88 94 103 108 107 102 95 90 74 57 56 85 95 100 100 96 90 94 99 101 104 106 110 103 97 92 87 87 90 94 93 92 91 91
161 169 165 159 151 138 122 107 95 92 97 103 109 111 109 105 95 84 66 63 87 98 99 97 100 99 93 98 99 107 113 114 119 117 110 102 102 96 98 95 96 94 94
167 166 168 163 154 145 134 116 107 105 106 105 110 116 114 113 103 87 79 69 90 99 101 95 96 101 100 99 100 102 106 110 119 124 125 109 103 101 104 103 100 101 94
169 169 168 165 160 150 140 130 121 118 110 107 114 118 121 117 108 93 80 69 92 98 100 101 100 97 89 87 85 93 100 104 105 109 114 113 100 105 108 104 93 90 87
176 175 172 172 167 156 148 137 128 123 116 111 109 120 122 123 116 121 92 67 99 105 109 110 105 98 86 82 86 88 94 97 100 105 105 106 106 100 94 95 98 98 93
179 180 179 180 176 168 160 145 139 134 126 115 110 108 117 125 128 135 116 76 97 115 119 117 114 103 93 85 84 89 86 91 93 89 88 81 85 91 100 103 103 107 104
182 184 184 185 183 178 173 160 153 144 133 124 117 113 121 126 136 151 129 60 89 124 128 128 126 119 102 91 95 95 97 96 96 93 96 98 102 103 107 110 110 112 107
188 187 190 191 191 188 186 180 170 161 151 139 131 127 135 142 152 169 172 100 133 148 147 143 142 136 104 100 107 106 106 106 106 109 116 109 119 119 123 115 115 114 117
194 198 195 196 195 195 196 194 189 181 173 163 152 145 152 153 156 164 156 113 155 155 151 152 148 134 116 104 103 111 117 119 128 131 130 128 132 142 137 121 120 115 106
201 204 201 201 201 201 201 201 200 195 192 187 181 171 166 166 171 181 183 130 162 154 151 161 157 138 119 107 103 123 145 149 153 147 145 133 141 128 131 130 121 107 118
205 206 207 208 208 209 207 205 205 205 204 202 196 188 184 183 189 206 201 177 172 163 159 164 158 141 117 109 107 138 176 180 177 170 171 177 209 231 247 123 132 129 120
207 204 208 213 215 213 213 212 212 212 212 212 208 202 193 199 203 210 205 192 184 173 167 165 159 152 137 118 115 143 165 180 190 184 199 214 198 164 140 155 147 127 118
211 212 210 214 219 219 218 217 217 217 217 215 214 212 214 204 203 224 204 195 187 180 170 168 167 171 170 148 137 159 178 185 184 175 200 198 276 313 0 146 131 118 109
218 219 219 221 220 225 225 224 225 224 222 222 219 218 220 207 208 227 205 194 187 183 184 181 180 183 180 161 155 185 182 188 183 199 216 226 258 305 344 130 124 122 121
224 225 227 228 226 229 231 227 230 230 229 228 225 225 222 218 217 222 211 201 207 201 195 211 211 216 219 214 209 197 199 198 205 206 235 216 254 291 318 135 135 126 124
229 230 230 230 232 234 240 236 233 233 233 232 230 230 227 225 220 225 219 222 212 217 230 235 242 244 242 237 238 232 215 207 201 216 234 248 262 277 271 191 142 140 132
235 233 232 232 233 235 241 244 238 238 238 234 232 231 231 230 225 225 225 227 221 238 235 243 241 245 237 244 238 233 219 216 212 224 233 252 258 263 260 275 166 156 152
241 238 236 234 234 235 239 242 240 239 242 237 233 233 235 233 232 229 233 240 235 239 249 252 245 240 244 247 240 229 224 222 229 227 235 241 247 251 252 266 213 195 181
246 244 240 237 237 236 238 241 242 242 243 243 241 236 238 236 234 235 238 237 244 240 237 255 246 246 244 242 236 234 228 225 236 238 239 238 243 246 243 264 258 266 225
249 247 244 241 240 239 239 240 240 241 244 244 247 243 240 240 238 238 238 243 244 241 241 241 243 244 242 241 237 234 236 235 233 237 245 244 246 246 249 256 253 261 258
251 250 245 241 238 238 236 235 236 237 239 242 246 247 246 246 245 242 242 243 246 245 249 245 244 240 239 237 236 234 232 234 241 238 239 245 243 247 249 249 250 256 253
249 251 250 246 240 238 240 242 240 243 245 246 248 252 249 249 252 247 246 245 248 249 246 249 247 246 240 241 236 235 234 241 242 243 242 240 241 243 247 249 249 249 251
247 249 250 249 245 242 240 241 242 241 243 243 243 247 252 250 256 251 252 251 249 251 251 253 252 250 249 244 241 231 215 234 245 245 245 244 244 243 245 245 245 246 245
252 250 245 247 244 243 241 241 243 247 246 249 250 249 250 256 256 259 254 253 256 253 252 252 253 254 251 251 244 249 238 249 235 242 250 248 244 246 244 246 246 245 243
249 255 245 245 244 242 241 243 245 246 249 253 255 253 253 258 258 258 257 259 259 260 259 257 255 251 254 251 256 254 249 245 244 246 255 253 249 250 247 249 250 245 241
264 266 256 242 240 239 238 242 246 250 254 257 257 259 262 261 261 264 261 261 265 265 267 264 265 257 256 251 267 254 255 252 248 250 259 256 257 259 253 248 251 248 245